This is the latest recevied weather packets stored in our database for station/object K5RWS. If no packets are shown the sender has not sent any weather packets the latest 10 day(s).
| Time | Temp. | Humidity | Pressure | Rain* | Wind** | Luminosity | Snow |
|---|---|---|---|---|---|---|---|
| 1777472280 | 11.67° C | 17% | 1021.1 hPa | 0 mm | - | 197 W/m² | - |
| 1777471976 | 12.22° C | 17% | 1021.1 hPa | 0 mm | - | 171 W/m² | - |
| 1777471673 | 11.67° C | 17% | 1021.3 hPa | 0 mm | - | 150 W/m² | - |
| 1777471369 | 11.11° C | 17% | 1021.1 hPa | 0 mm | - | 160 W/m² | - |
| 1777471066 | 11.67° C | 17% | 1021.4 hPa | 0 mm | - | 122 W/m² | - |
| 1777470762 | 11.67° C | 17% | 1021.1 hPa | 0 mm | - | 121 W/m² | - |
| 1777470459 | 11.67° C | 17% | 1020.9 hPa | 0 mm | - | 114 W/m² | - |
| 1777470155 | 12.22° C | 16% | 1020.9 hPa | 0 mm | - | 115 W/m² | - |
| 1777469852 | 12.78° C | 15% | 1020.9 hPa | 0 mm | - | 150 W/m² | - |
| 1777469547 | 11.11° C | 16% | 1020.8 hPa | 0 mm | - | 141 W/m² | - |
| 1777469241 | 10.56° C | 17% | 1020.8 hPa | 0 mm | - | 142 W/m² | - |
| 1777468936 | 10.56° C | 17% | 1020.9 hPa | 0 mm | - | 128 W/m² | - |
| 1777468633 | 9.44° C | 17% | 1020.7 hPa | 0 mm | - | 104 W/m² | - |
| 1777468330 | 8.89° C | 18% | 1021 hPa | 0 mm | - | 91 W/m² | - |
| 1777468026 | 7.78° C | 19% | 1020.8 hPa | 0 mm | - | 79 W/m² | - |
| 1777467722 | 6.67° C | 19% | 1020.9 hPa | 0 mm | - | 74 W/m² | - |
| 1777467417 | 6.67° C | 20% | 1020.8 hPa | 0 mm | - | 54 W/m² | - |
| 1777467113 | 6.11° C | 20% | 1020.8 hPa | 0 mm | - | 37 W/m² | - |
| 1777466810 | 5.56° C | 21% | 1020.8 hPa | 0 mm | - | 29 W/m² | - |
| 1777466508 | 5° C | 22% | 1020.8 hPa | 0 mm | - | 22 W/m² | - |
| 1777466204 | 5.56° C | 21% | 1020.8 hPa | 0 mm | - | 17 W/m² | - |
| 1777465900 | 4.44° C | 22% | 1020.7 hPa | 0 mm | - | 13 W/m² | - |
| 1777465592 | 5° C | 21% | 1020.7 hPa | 0 mm | - | 9 W/m² | - |
| 1777465287 | 5° C | 21% | 1020.7 hPa | 0 mm | - | 5 W/m² | - |
| 1777464981 | 3.89° C | 23% | 1020.7 hPa | 0 mm | - | 3 W/m² | - |
* Rain latest hour (hover to see other rain measurements)
** Current wind speed in m/s (hover to see current wind gust speed)